Zurück zum Katalog

FENGYUN 1C DEB

AktivSSO
NORAD 30352·DEBRIS·🇨🇳 China

Gestartet May 10, 1999 von Taiyuan Satellite Launch Center

Loading…

Nächste Überflüge (nächste 24 Stunden)

TLE

AktuellSource: Space-Track

Epoche: Sep 13, 2026, 23:32 UTC

1 30352U 99025ABP 26256.98060101  .00000295  00000-0  19871-3 0  9999
2 30352  98.7481 274.6526 0027314 261.4860 126.7271 14.07754685  7750

Verfolge FENGYUN 1C DEB in Echtzeit mit AllMySat

Download on the App Store